PLATFORM,ARGOS_ID,DATE (YYYY/MM/DD HH:MI:SS),LATITUDE (degree_north),LONGITUDE (degree_east),DEPH (meter),TEMP (degree_Celsius),EWCT (meter/second),NSCT (meter/second),WSTN_MODEL (newton/m2),WSPN_MODEL (meter/second),CO00 (none),WSTE_MODEL (newton/m2),WSPE_MODEL (meter/second),TEMP LEVEL0 (degree_Celsius),EWCT LEVEL1 (meter/second),NSCT LEVEL1 (meter/second),QC,SVP_RCBN_Number,SVP_GNRL_ImmPercent,SVP_GNRL_BattVolt
61933,64519,2007/07/26 19:00:11,43.1285,4.5224,,,,,,,,,,22.12,,,00111999999999199,1,1,12
61933,64519,2007/07/26 20:00:36,43.1242,4.5228,,,,,,,,,,22.04,0.008955,-0.1319,00111999999999100,1,0,12
61933,64519,2007/07/26 21:00:17,43.1197,4.5222,,,,,,,,,,21.96,-0.013599,-0.139731,00111999999999100,4,0,12
61933,64519,2007/07/26 22:00:17,43.1151,4.5200,,,,,,,,,,21.88,-0.049602,-0.142082,00111999999999100,1,0,12
61933,64519,2007/07/26 23:00:54,43.1109,4.5163,,,,,,,,,,21.88,-0.082579,-0.128408,00111999999999100,8,0,12
61933,64519,2007/07/27 00:00:36,43.1074,4.5101,,,,,,,,,,21.88,-0.140509,-0.108649,00111999999999100,6,0,12
61933,64519,2007/07/27 01:00:11,43.1060,4.5031,,,,,,,,,,21.88,-0.158957,-0.043545,00111999999999100,8,0,12
61933,64519,2007/07/27 02:00:11,43.1076,4.4960,,,,,,,,,,21.88,-0.160108,0.04942,00111999999999100,8,0,12
61933,64519,2007/07/27 03:00:41,43.1105,4.4903,,,,,,,,,,21.8,-0.12747,0.088833,00111999999999100,7,0,12
61933,64519,2007/07/27 04:00:11,43.1134,4.4860,,,,,,,,,,21.88,-0.097773,0.090326,00111999999999100,3,0,12
61933,64519,2007/07/27 05:00:11,43.1172,4.4837,,,,,,,,,,21.96,-0.051859,0.117372,00111999999999100,4,0,12
61933,64519,2007/07/27 06:00:41,43.1207,4.4839,,,,,,,,,,21.96,0.004472,0.107213,00111999999999100,4,0,12
61933,64519,2007/07/27 07:00:11,43.1224,4.4856,,,,,,,,,,22.04,0.038648,0.05295,00111999999999100,5,1,12
61933,64519,2007/07/27 08:00:11,43.1232,4.4889,,,,,,,,,,22.04,0.074397,0.02471,00111999999999100,6,11,12
61933,64519,2007/07/27 09:00:11,43.1217,4.4932,,,,,,,,,,22.04,0.096942,-0.046331,00111999999999100,4,4,12
61933,64519,2007/07/27 10:00:41,43.1194,4.4973,,,,,,,,,,22.12,0.091672,-0.070454,00111999999999100,8,22,12
61933,64519,2007/07/27 11:00:12,43.1153,4.5015,,,,,,,,,,22.2,0.095464,-0.127667,00111999999999100,7,3,12
61933,64519,2007/07/27 12:00:07,43.1088,4.5051,,,,,,,,,,22.36,0.081287,-0.201048,00111999999999100,5,0,12
61933,64519,2007/07/27 13:00:41,43.1038,4.5067,,,,,,,,,,22.44,0.035743,-0.152992,00111999999999100,4,11,12
61933,64519,2007/07/27 14:00:11,43.0994,4.5074,,,,,,,,,,22.6,0.015919,-0.137047,00111999999999100,6,11,12
61933,64519,2007/07/27 15:00:24,43.0956,4.5046,,,,,,,,,,22.6,-0.062923,-0.11695,00111999999999100,5,3,12
61933,64519,2007/07/27 16:00:41,43.0935,4.5001,,,,,,,,,,22.76,-0.10102,-0.064559,00111999999999100,1,0,12
61933,64519,2007/07/27 17:00:11,43.0920,4.4968,,,,,,,,,,22.68,-0.075059,-0.046721,00111999999999100,1,1,12
61933,64519,2007/07/27 18:00:17,43.0908,4.4933,,,,,,,,,,22.6,-0.078815,-0.037003,00111999999999100,1,1,12
61933,64519,2007/07/27 19:00:12,43.0902,4.4902,,,,,,,,,,22.52,-0.070022,-0.018558,00111999999999100,4,1,12
61933,64519,2007/07/27 20:00:41,43.0896,4.4891,,,,,,,,,,22.44,-0.024614,-0.018384,00111999999999100,5,12,12
61933,64519,2007/07/27 21:00:12,43.0896,4.4883,,,,,,,,,,22.36,-0.018192,0,00111999999999100,3,23,12
61933,64519,2007/07/27 22:00:18,43.0892,4.4882,,,,,,,,,,22.36,-0.002252,-0.012334,00111999999999100,4,63,12
61933,64519,2007/07/27 23:00:49,43.0891,4.4895,,,,,,,,,,22.36,0.029074,-0.003062,00111999999999100,5,68,12
61933,64519,2007/07/28 00:00:41,43.0891,4.4928,,,,,,,,,,22.2,0.074604,0,00111999999999100,5,100,12
61933,64519,2007/07/28 01:00:11,43.0875,4.4972,,,,,,,,,,22.12,0.100086,-0.049835,00111999999999100,4,74,12
61933,64519,2007/07/28 02:00:11,43.0844,4.5012,,,,,,,,,,21.96,0.090232,-0.095751,00111999999999100,4,88,12
61933,64519,2007/07/28 03:00:41,43.0797,4.5050,,,,,,,,,,21.96,0.085018,-0.143971,00111999999999100,3,87,12
61933,64519,2007/07/28 04:00:06,43.0741,4.5083,,,,,,,,,,21.96,0.075184,-0.174668,00111999999999100,7,93,12
61933,64519,2007/07/28 05:00:17,43.0681,4.5089,,,,,,,,,,22.04,0.013497,-0.18476,00111999999999100,4,82,12
61933,64519,2007/07/28 06:00:41,43.0618,4.5064,,,,,,,,,,22.12,-0.056041,-0.193302,00111999999999100,1,100,12
61933,64519,2007/07/28 07:00:11,43.0544,4.5044,,,,,,,,,,22.2,-0.045516,-0.230488,00111999999999100,4,47,12
61933,64519,2007/07/28 08:00:12,43.0476,4.5022,,,,,,,,,,22.2,-0.049642,-0.209977,00111999999999100,4,53,12
61933,64519,2007/07/28 09:00:18,43.0436,4.4989,,,,,,,,,,22.28,-0.074367,-0.123344,00111999999999100,8,0,12
61933,64519,2007/07/28 10:00:41,43.0400,4.4958,,,,,,,,,,22.28,-0.069536,-0.110489,00111999999999100,5,14,12
61933,64519,2007/07/28 11:00:11,43.0381,4.4930,,,,,,,,,,22.28,-0.063742,-0.059179,00111999999999100,4,36,12
61933,64519,2007/07/28 12:00:41,43.0363,4.4906,,,,,,,,,,22.44,-0.053735,-0.055138,00111999999999100,5,36,12
61933,64519,2007/07/28 13:00:11,43.0337,4.4904,,,,,,,,,,22.6,-0.004553,-0.080982,00111999999999100,3,23,12
61933,64519,2007/07/28 14:00:11,43.0320,4.4914,,,,,,,,,,22.6,0.022578,-0.052509,00111999999999100,7,80,12
61933,64519,2007/07/28 15:00:19,43.0298,4.4944,,,,,,,,,,22.44,0.067585,-0.067802,00111999999999100,4,80,12
61933,64519,2007/07/28 16:00:41,43.0278,4.4990,,,,,,,,,,22.44,0.103233,-0.0614,00111999999999100,4,100,12
61933,64519,2007/07/28 17:00:17,43.0265,4.5037,,,,,,,,,,22.44,0.106837,-0.040423,00111999999999100,5,100,12
61933,64519,2007/07/28 18:00:17,43.0250,4.5098,,,,,,,,,,22.44,0.137739,-0.046331,00111999999999100,1,100,12
61933,64519,2007/07/28 19:00:13,43.0223,4.5175,,,,,,,,,,22.36,0.174067,-0.083489,00111999999999100,1,100,12
61933,64519,2007/07/28 20:00:41,43.0166,4.5245,,,,,,,,,,22.28,0.156858,-0.1747,00111999999999100,3,100,12
61933,64519,2007/07/28 21:00:11,43.0093,4.5302,,,,,,,,,,22.2,0.129816,-0.227373,00111999999999100,1,100,12
61933,64519,2007/07/28 22:00:41,42.9991,4.5357,,,,,,,,,,22.2,0.123208,-0.312449,00111999999999100,6,100,12
61933,64519,2007/07/28 23:03:33,42.9869,4.5389,,,,,,,,,,22.12,0.068999,-0.359644,00111999999999100,5,100,12
61933,64519,2007/07/29 00:00:16,42.9754,4.5391,,,,,,,,,,22.04,0.004781,-0.375769,00111999999999100,3,100,12
61933,64519,2007/07/29 01:00:54,42.9639,4.5368,,,,,,,,,,22.04,-0.051439,-0.351496,00111999999999100,8,100,12
61933,64519,2007/07/29 02:00:10,42.9561,4.5320,,,,,,,,,,21.96,-0.109844,-0.243903,00111999999999100,3,100,12
61933,64519,2007/07/29 03:00:40,42.9504,4.5265,,,,,,,,,,21.96,-0.12331,-0.174604,00111999999999100,6,100,12
61933,64519,2007/07/29 04:00:11,42.9464,4.5228,,,,,,,,,,22.04,-0.084331,-0.124553,00111999999999100,4,100,12
61933,64519,2007/07/29 05:00:12,42.9423,4.5242,,,,,,,,,,22.04,0.031645,-0.126603,00111999999999100,6,100,12
61933,64519,2007/07/29 06:00:40,42.9384,4.5245,,,,,,,,,,21.96,0.006731,-0.119531,00111999999999100,3,100,12
61933,64519,2007/07/29 07:00:10,42.9351,4.5264,,,,,,,,,,21.96,0.043326,-0.102785,00111999999999100,3,100,12
61933,64519,2007/07/29 08:00:10,42.9320,4.5289,,,,,,,,,,21.88,0.056535,-0.095751,00111999999999100,1,100,12
61933,64519,2007/07/29 09:00:16,42.9279,4.5328,,,,,,,,,,21.88,0.088053,-0.126428,00111999999999100,6,100,12
61933,64519,2007/07/29 10:00:40,42.9212,4.5400,,,,,,,,,,21.8,0.161767,-0.205576,00111999999999100,5,100,12
61933,64519,2007/07/29 11:00:20,42.9128,4.5460,,,,,,,,,,21.88,0.136479,-0.260904,00111999999999100,4,100,12
61933,64519,2007/07/29 12:00:17,42.9036,4.5518,,,,,,,,,,21.88,0.131325,-0.284402,00111999999999100,4,100,12
61933,64519,2007/07/29 13:01:10,42.8946,4.5569,,,,,,,,,,21.88,0.113722,-0.273954,00111999999999100,1,100,12
61933,64519,2007/07/29 14:00:36,42.8868,4.5620,,,,,,,,,,21.88,0.116512,-0.243219,00111999999999100,5,100,12
61933,64519,2007/07/29 15:00:47,42.8789,4.5668,,,,,,,,,,21.8,0.108306,-0.243268,00111999999999100,3,100,12
61933,64519,2007/07/29 16:00:40,42.8708,4.5714,,,,,,,,,,21.88,0.104327,-0.250676,00111999999999100,1,100,12
61933,64519,2007/07/29 17:00:10,42.8641,4.5762,,,,,,,,,,21.88,0.109577,-0.208685,00111999999999100,1,93,12
61933,64519,2007/07/29 18:00:10,42.8579,4.5802,,,,,,,,,,21.8,0.090563,-0.191502,00111999999999100,1,98,12
61933,64519,2007/07/29 19:00:10,42.8507,4.5856,,,,,,,,,,21.88,0.122273,-0.22239,00111999999999100,1,100,12
61933,64519,2007/07/29 20:00:40,42.8440,4.5893,,,,,,,,,,21.8,0.083097,-0.205236,00111999999999100,1,100,12
61933,64519,2007/07/29 21:00:10,42.8363,4.5939,,,,,,,,,,21.8,0.105058,-0.239832,00111999999999100,4,100,12
61933,64519,2007/07/29 22:00:40,42.8265,4.5994,,,,,,,,,,21.8,0.123554,-0.300196,00111999999999100,5,100,12
61933,64519,2007/07/29 23:00:16,42.8150,4.6037,,,,,,,,,,21.72,0.098072,-0.35759,00111999999999100,5,100,12
61933,64519,2007/07/30 00:00:10,42.8010,4.6060,,,,,,,,,,21.64,0.052205,-0.433147,00111999999999100,6,100,12
61933,64519,2007/07/30 01:00:10,42.7864,4.6043,,,,,,,,,,21.64,-0.038531,-0.450957,00111999999999100,7,100,12
61933,64519,2007/07/30 02:00:35,42.7712,4.6005,,,,,,,,,,21.56,-0.085555,-0.466252,00111999999999100,6,100,12
61933,64519,2007/07/30 03:00:11,42.7583,4.5934,,,,,,,,,,21.4,-0.16208,-0.401123,00111999999999100,6,100,12
61933,64519,2007/07/30 04:00:10,42.7484,4.5834,,,,,,,,,,21.32,-0.226864,-0.305871,00111999999999100,1,100,12
61933,64519,2007/07/30 05:00:40,42.7397,4.5717,,,,,,,,,,21.24,-0.263204,-0.2665,00111999999999100,5,100,12
61933,64519,2007/07/30 06:00:16,42.7329,4.5593,,,,,,,,,,21.16,-0.283199,-0.211444,00111999999999100,6,100,12
61933,64519,2007/07/30 07:00:40,42.7264,4.5469,,,,,,,,,,21.08,-0.279478,-0.199439,00111999999999100,1,100,12
61933,64519,2007/07/30 08:00:28,42.7217,4.5375,,,,,,,,,,21.08,-0.214007,-0.145657,00111999999999100,3,100,12
61933,64519,2007/07/30 09:00:40,42.7187,4.5309,,,,,,,,,,21.08,-0.149271,-0.092355,00111999999999100,1,100,12
61933,64519,2007/07/30 10:00:16,42.7137,4.5262,,,,,,,,,,21.08,-0.107376,-0.155474,00111999999999100,1,100,12
61933,64519,2007/07/30 11:00:22,42.7072,4.5228,,,,,,,,,,21.08,-0.077037,-0.200435,00111999999999100,1,100,12
61933,64519,2007/07/30 12:00:40,42.6986,4.5202,,,,,,,,,,21.08,-0.058723,-0.264311,00111999999999100,4,100,12
61933,64519,2007/07/30 13:00:17,42.6886,4.5165,,,,,,,,,,21.08,-0.084537,-0.310861,00111999999999100,1,100,12
61933,64519,2007/07/30 14:00:40,42.6778,4.5125,,,,,,,,,,21.08,-0.090247,-0.331467,00111999999999100,1,100,12
61933,64519,2007/07/30 15:00:46,42.6662,4.5084,,,,,,,,,,21.08,-0.092956,-0.357699,00111999999999100,1,100,12
61933,64519,2007/07/30 16:00:40,42.6533,4.5013,,,,,,,,,,21.08,-0.161541,-0.399114,00111999999999100,1,100,12
61933,64519,2007/07/30 17:00:10,42.6393,4.4893,,,,,,,,,,21,-0.274922,-0.436059,00111999999999100,1,95,12
61933,64519,2007/07/30 18:00:16,42.6276,4.4717,,,,,,,,,,21,-0.399276,-0.360782,00111999999999100,3,95,12
61933,64519,2007/07/30 19:00:22,42.6178,4.4517,,,,,,,,,,20.92,-0.453802,-0.302194,00111999999999100,1,100,12
61933,64519,2007/07/30 20:00:40,42.6103,4.4296,,,,,,,,,,20.92,-0.499857,-0.230504,00111999999999100,1,100,12
61933,64519,2007/07/30 21:00:16,42.6058,4.4080,,,,,,,,,,20.92,-0.494334,-0.139927,00111999999999100,1,100,12
61933,64519,2007/07/30 22:00:40,42.6039,4.3881,,,,,,,,,,20.84,-0.449419,-0.058298,00111999999999100,1,100,12
61933,64519,2007/07/30 23:00:16,42.6046,4.3710,,,,,,,,,,20.84,-0.391371,0.021766,00111999999999100,1,100,12
61933,64519,2007/07/31 00:00:07,42.6050,4.3583,,,,,,,,,,20.92,-0.289451,0.012386,00111999999999100,1,100,12
61933,64519,2007/07/31 01:00:40,42.6062,4.3438,,,,,,,,,,20.92,-0.326651,0.036728,00111999999999100,3,100,11.9
61933,64519,2007/07/31 02:00:16,42.6050,4.3340,,,,,,,,,,20.92,-0.22429,-0.037314,00111999999999100,3,100,12
61933,64519,2007/07/31 03:00:40,42.6015,4.3249,,,,,,,,,,20.92,-0.205518,-0.10739,00111999999999100,3,100,12
61933,64519,2007/07/31 04:00:10,42.5957,4.3178,,,,,,,,,,20.92,-0.162787,-0.180653,00111999999999100,5,100,12
61933,64519,2007/07/31 05:00:10,42.5872,4.3111,,,,,,,,,,20.84,-0.152353,-0.262544,00111999999999100,1,100,12
61933,64519,2007/07/31 06:00:40,42.5775,4.3010,,,,,,,,,,20.84,-0.227802,-0.297132,00111999999999100,1,100,12
61933,64519,2007/07/31 07:00:16,42.5671,4.2901,,,,,,,,,,20.84,-0.249599,-0.323386,00111999999999100,1,100,12
61933,64519,2007/07/31 08:00:16,42.5578,4.2770,,,,,,,,,,20.92,-0.298023,-0.287254,00111999999999100,1,93,12
61933,64519,2007/07/31 09:00:40,42.5470,4.2629,,,,,,,,,,20.92,-0.3187,-0.331376,00111999999999100,1,85,12
61933,64519,2007/07/31 10:00:11,42.5385,4.2470,,,,,,,,,,20.92,-0.364776,-0.264676,00111999999999100,6,77,12
61933,64519,2007/07/31 11:00:10,42.5317,4.2304,,,,,,,,,,21.08,-0.377919,-0.210093,00111999999999100,1,47,12
61933,64519,2007/07/31 12:00:36,42.5266,4.2139,,,,,,,,,,21.16,-0.37288,-0.156397,00111999999999100,3,6,12
61933,64519,2007/07/31 13:00:10,42.5235,4.2014,,,,,,,,,,21.32,-0.286614,-0.096448,00111999999999100,1,0,12
61933,64519,2007/07/31 14:00:16,42.5211,4.1910,,,,,,,,,,21.56,-0.236357,-0.074007,00111999999999100,6,0,12
61933,64519,2007/07/31 15:00:40,42.5179,4.1836,,,,,,,,,,21.64,-0.167349,-0.098185,00111999999999100,5,3,12
61933,64519,2007/07/31 16:00:16,42.5133,4.1805,,,,,,,,,,21.8,-0.071051,-0.143036,00111999999999100,4,0,12
61933,64519,2007/07/31 17:00:16,42.5085,4.1809,,,,,,,,,,21.88,0.009107,-0.14826,00111999999999100,1,0,12
61933,64519,2007/07/31 19:00:11,42.4940,4.1788,,,,,,,,,,21.4,-0.023927,-0.22409,00111999999999100,1,0,12
61933,64519,2007/07/31 20:00:24,42.4859,4.1760,,,,,,,,,,21.56,-0.063544,-0.249288,00111999999999100,1,0,12
61933,64519,2007/07/31 21:00:40,42.4783,4.1741,,,,,,,,,,21.64,-0.043089,-0.233706,00111999999999100,1,0,12
61933,64519,2007/07/31 22:00:16,42.4715,4.1709,,,,,,,,,,21.64,-0.073391,-0.211444,00111999999999100,1,14,12
61933,64519,2007/07/31 23:00:10,42.4651,4.1667,,,,,,,,,,21.56,-0.095853,-0.19801,00111999999999100,1,0,12
61933,64519,2007/08/01 00:00:40,42.4592,4.1618,,,,,,,,,,21.32,-0.110731,-0.18073,00111999999999100,1,0,11.9
61933,64519,2007/08/01 01:00:10,42.4532,4.1572,,,,,,,,,,21.48,-0.105708,-0.186882,00111999999999100,3,0,12
61933,64519,2007/08/01 02:00:16,42.4472,4.1505,,,,,,,,,,21.48,-0.152444,-0.185017,00111999999999100,3,0,12
61933,64519,2007/08/01 03:00:40,42.4421,4.1436,,,,,,,,,,21.4,-0.156229,-0.156483,00111999999999100,1,0,12
61933,64519,2007/08/01 04:00:10,42.4362,4.1365,,,,,,,,,,21.32,-0.163203,-0.183768,00111999999999100,4,4,12
61933,64519,2007/08/01 05:00:28,42.4302,4.1299,,,,,,,,,,21.32,-0.149711,-0.184403,00111999999999100,1,63,12
61933,64519,2007/08/01 06:00:37,42.4249,4.1226,,,,,,,,,,21.32,-0.166018,-0.163295,00111999999999100,1,93,12
61933,64519,2007/08/01 07:00:11,42.4211,4.1159,,,,,,,,,,21.32,-0.153876,-0.118226,00111999999999100,1,100,12
61933,64519,2007/08/01 08:00:11,42.4181,4.1102,,,,,,,,,,21.32,-0.129971,-0.092662,00111999999999100,1,98,12
61933,64519,2007/08/01 09:00:40,42.4167,4.1055,,,,,,,,,,21.48,-0.106316,-0.042897,00111999999999100,1,87,12
61933,64519,2007/08/01 10:00:11,42.4156,4.1013,,,,,,,,,,21.72,-0.096551,-0.034252,00111999999999100,1,20,12
61933,64519,2007/08/01 11:00:17,42.4137,4.0972,,,,,,,,,,21.88,-0.09334,-0.058589,00111999999999100,1,98,12
61933,64519,2007/08/01 12:00:40,42.4128,4.0943,,,,,,,,,,21.8,-0.065712,-0.027622,00111999999999100,4,98,12
61933,64519,2007/08/01 13:00:10,42.4108,4.0918,,,,,,,,,,21.88,-0.057491,-0.062294,00111999999999100,4,98,12
61933,64519,2007/08/01 14:00:16,42.4073,4.0899,,,,,,,,,,21.72,-0.043259,-0.107926,00111999999999100,7,96,12
61933,64519,2007/08/01 15:00:46,42.4023,4.0862,,,,,,,,,,21.72,-0.08369,-0.153161,00111999999999100,6,100,12
61933,64519,2007/08/01 16:00:35,42.3966,4.0820,,,,,,,,,,22.04,-0.096092,-0.176598,00111999999999100,5,100,12
61933,64519,2007/08/01 17:00:11,42.3900,4.0765,,,,,,,,,,21.72,-0.126305,-0.205226,00111999999999100,4,100,12
61933,64519,2007/08/01 18:00:40,42.3839,4.0706,,,,,,,,,,21.72,-0.133526,-0.186908,00111999999999100,1,92,12
61933,64519,2007/08/01 19:00:11,42.3774,4.0645,,,,,,,,,,21.64,-0.140308,-0.202399,00111999999999100,1,79,12
61933,64519,2007/08/01 20:00:07,42.3696,4.0581,,,,,,,,,,21.56,-0.146202,-0.24119,00111999999999100,4,58,12
61933,64519,2007/08/01 21:00:36,42.3612,4.0516,,,,,,,,,,21.56,-0.147155,-0.257381,00111999999999100,1,36,12
61933,64519,2007/08/01 22:00:40,42.3527,4.0451,,,,,,,,,,21.56,-0.148196,-0.262252,00111999999999100,5,14,12
61933,64519,2007/08/01 23:00:16,42.3449,4.0366,,,,,,,,,,21.56,-0.195337,-0.242539,00111999999999100,8,42,11.9
61933,64519,2007/08/02 00:00:16,42.3372,4.0265,,,,,,,,,,21.56,-0.230587,-0.237834,00111999999999100,1,4,12
61933,64519,2007/08/02 01:00:40,42.3299,4.0167,,,,,,,,,,21.48,-0.222283,-0.223985,00111999999999100,4,17,12
61933,64519,2007/08/02 02:00:16,42.3234,4.0071,,,,,,,,,,21.48,-0.220694,-0.202116,00111999999999100,6,11,12
61933,64519,2007/08/02 03:00:22,42.3169,3.9974,,,,,,,,,,21.48,-0.22116,-0.200435,00111999999999100,5,0,12
61933,64519,2007/08/02 04:00:36,42.3104,3.9882,,,,,,,,,,21.48,-0.209318,-0.199991,00111999999999100,4,0,12
61933,64519,2007/08/02 05:00:16,42.3039,3.9800,,,,,,,,,,21.48,-0.188357,-0.20189,00111999999999100,4,15,12
61933,64519,2007/08/02 06:00:10,42.2967,3.9729,,,,,,,,,,21.48,-0.162472,-0.222761,00111999999999100,1,93,12
61933,64519,2007/08/02 07:00:40,42.2877,3.9666,,,,,,,,,,21.48,-0.142754,-0.27569,00111999999999100,4,100,11.9
61933,64519,2007/08/02 08:00:10,42.2785,3.9602,,,,,,,,,,21.48,-0.147478,-0.286553,00111999999999100,1,100,11.9
61933,64519,2007/08/02 09:00:16,42.2681,3.9529,,,,,,,,,,21.4,-0.166564,-0.320695,00111999999999100,3,100,12
61933,64519,2007/08/02 10:00:40,42.2569,3.9431,,,,,,,,,,21.4,-0.222534,-0.343649,00111999999999100,1,100,11.9
61933,64519,2007/08/02 11:00:12,42.2462,3.9326,,,,,,,,,,21.4,-0.241942,-0.333087,00111999999999100,6,100,11.9
61933,64519,2007/08/02 12:00:22,42.2364,3.9196,,,,,,,,,,21.48,-0.296443,-0.301859,00111999999999100,3,100,11.9
61933,64519,2007/08/02 13:00:40,42.2270,3.9066,,,,,,,,,,21.48,-0.295832,-0.288898,00111999999999100,5,100,11.9
61933,64519,2007/08/02 14:00:12,42.2184,3.8919,,,,,,,,,,21.56,-0.338874,-0.267715,00111999999999100,5,96,11.9
61933,64519,2007/08/02 15:00:47,42.2114,3.8743,,,,,,,,,,21.64,-0.398744,-0.214131,00111999999999100,6,90,11.9
61933,64519,2007/08/02 16:00:40,42.2057,3.8580,,,,,,,,,,21.72,-0.373646,-0.176402,00111999999999100,5,15,11.9
61933,64519,2007/08/02 17:00:16,42.2011,3.8432,,,,,,,,,,21.72,-0.340902,-0.143036,00111999999999100,1,6,11.9
61933,64519,2007/08/02 18:00:16,42.1973,3.8302,,,,,,,,,,21.8,-0.297464,-0.117372,00111999999999100,1,0,11.9
61933,64519,2007/08/02 19:00:12,42.1936,3.8188,,,,,,,,,,21.8,-0.261159,-0.114411,00111999999999100,4,0,11.9
61933,64519,2007/08/02 20:00:40,42.1892,3.8104,,,,,,,,,,21.72,-0.190748,-0.134856,00111999999999100,1,100,11.9
61933,64519,2007/08/02 21:01:01,42.1833,3.8015,,,,,,,,,,21.64,-0.202509,-0.181179,00111999999999100,5,100,11.9
61933,64519,2007/08/02 22:00:16,42.1773,3.7939,,,,,,,,,,21.56,-0.176156,-0.187671,00111999999999100,1,100,11.9
61933,64519,2007/08/02 23:00:17,42.1674,3.7859,,,,,,,,,,21.48,-0.183082,-0.305701,00111999999999100,1,100,11.9
61933,64519,2007/08/03 00:00:40,42.1552,3.7760,,,,,,,,,,21.32,-0.225227,-0.374435,00111999999999100,1,100,11.9
61933,64519,2007/08/03 01:00:11,42.1412,3.7646,,,,,,,,,,21.32,-0.263184,-0.435936,00111999999999100,6,100,11.9
61933,64519,2007/08/03 02:00:29,42.1278,3.7506,,,,,,,,,,21.32,-0.319079,-0.411833,00111999999999100,1,100,11.9
61933,64519,2007/08/03 03:00:40,42.1143,3.7352,,,,,,,,,,21.32,-0.351742,-0.415711,00111999999999100,7,100,11.9
61933,64519,2007/08/03 04:00:10,42.0992,3.7185,,,,,,,,,,21.24,-0.385902,-0.47032,00111999999999100,4,100,11.9
61933,64519,2007/08/03 05:00:40,42.0845,3.6984,,,,,,,,,,21.24,-0.456899,-0.450294,00111999999999100,5,100,11.9
61933,64519,2007/08/03 06:00:16,42.0713,3.6757,,,,,,,,,,21.24,-0.523907,-0.410451,00111999999999100,5,100,11.9
61933,64519,2007/08/03 07:00:11,42.0611,3.6529,,,,,,,,,,21.32,-0.523531,-0.31549,00111999999999100,3,100,11.9
61933,64519,2007/08/03 08:00:40,42.0532,3.6313,,,,,,,,,,21.32,-0.4914,-0.242061,00111999999999100,3,100,11.9
61933,64519,2007/08/03 09:00:16,42.0477,3.6112,,,,,,,,,,21.32,-0.464101,-0.171021,00111999999999100,3,100,11.9
61933,64519,2007/08/03 10:00:11,42.0426,3.5938,,,,,,,,,,21.32,-0.399669,-0.157745,00111999999999100,1,100,11.9
61933,64519,2007/08/03 11:00:40,42.0382,3.5787,,,,,,,,,,21.4,-0.343615,-0.134819,00111999999999100,1,100,11.9
61933,64519,2007/08/03 12:00:16,42.0343,3.5649,,,,,,,,,,21.4,-0.318708,-0.12127,00111999999999100,6,100,11.9
61933,64519,2007/08/03 13:00:16,42.0313,3.5523,,,,,,,,,,21.4,-0.28907,-0.092662,00111999999999100,7,88,11.9
61933,64519,2007/08/03 14:00:40,42.0293,3.5425,,,,,,,,,,21.56,-0.223352,-0.061366,00111999999999100,6,77,11.9
61933,64519,2007/08/03 15:00:46,42.0277,3.5363,,,,,,,,,,21.64,-0.142014,-0.049338,00111999999999100,8,69,11.9
61933,64519,2007/08/03 16:00:40,42.0264,3.5332,,,,,,,,,,21.8,-0.071245,-0.040221,00111999999999100,3,0,11.9
61933,64519,2007/08/03 17:00:16,42.0233,3.5325,,,,,,,,,,21.88,-0.016169,-0.096394,00111999999999100,3,0,11.9
61933,64519,2007/08/03 18:00:11,42.0186,3.5341,,,,,,,,,,21.8,0.036765,-0.145373,00111999999999100,6,0,11.9
61933,64519,2007/08/03 19:00:11,42.0123,3.5349,,,,,,,,,,21.8,0.018359,-0.194591,00111999999999100,1,0,11.9
61933,64519,2007/08/03 20:00:40,42.0047,3.5337,,,,,,,,,,21.72,-0.027321,-0.232869,00111999999999100,4,1,11.9
61933,64519,2007/08/03 21:00:56,41.9969,3.5309,,,,,,,,,,21.64,-0.063986,-0.239856,00111999999999100,5,47,11.9
61933,64519,2007/08/03 22:00:16,41.9886,3.5267,,,,,,,,,,21.64,-0.097501,-0.259247,00111999999999100,3,85,11.9
61933,64519,2007/08/03 23:00:17,41.9805,3.5214,,,,,,,,,,21.64,-0.121651,-0.250119,00111999999999100,1,0,11.9
61933,64519,2007/08/04 00:00:40,41.9728,3.5147,,,,,,,,,,21.64,-0.152871,-0.236324,00111999999999100,1,0,11.9
61933,64519,2007/08/04 01:00:10,41.9654,3.5056,,,,,,,,,,21.56,-0.210738,-0.230488,00111999999999100,3,85,11.9
61933,64519,2007/08/04 02:00:10,41.9591,3.4971,,,,,,,,,,21.48,-0.195224,-0.194591,00111999999999100,9,84,11.9
61933,64519,2007/08/04 03:00:39,41.9539,3.4894,,,,,,,,,,21.4,-0.175452,-0.159331,00111999999999100,8,0,11.9
61933,64519,2007/08/04 04:00:16,41.9493,3.4816,,,,,,,,,,21.4,-0.180328,-0.142996,00111999999999100,7,0,11.9
61933,64519,2007/08/04 05:00:18,41.9461,3.4739,,,,,,,,,,21.4,-0.176792,-0.098785,00111999999999100,3,0,11.9
61933,64519,2007/08/04 06:00:40,41.9439,3.4681,,,,,,,,,,21.48,-0.132438,-0.06754,00111999999999100,1,0,11.9
61933,64519,2007/08/04 07:00:16,41.9428,3.4634,,,,,,,,,,21.56,-0.108704,-0.034204,00111999999999100,4,0,11.9
61933,64519,2007/08/04 08:00:10,41.9423,3.4605,,,,,,,,,,21.64,-0.066738,-0.01547,00111999999999100,1,0,11.9
61933,64519,2007/08/04 09:00:16,41.9403,3.4576,,,,,,,,,,21.88,-0.066517,-0.061672,00111999999999100,4,0,11.9
61933,64519,2007/08/04 10:00:35,41.9381,3.4552,,,,,,,,,,22.76,-0.054852,-0.067596,00111999999999100,1,0,11.9
61933,64519,2007/08/04 11:00:11,41.9362,3.4535,,,,,,,,,,23.08,-0.039322,-0.05908,00111999999999100,6,0,11.9
61933,64519,2007/08/04 12:00:13,41.9343,3.4529,,,,,,,,,,22.92,-0.013779,-0.058654,00111999999999100,7,0,11.9
61933,64519,2007/08/04 13:00:40,41.9319,3.4530,,,,,,,,,,23,0.002281,-0.073578,00111999999999100,5,0,11.9
61933,64519,2007/08/04 14:00:10,41.9286,3.4524,,,,,,,,,,23,-0.013903,-0.102785,00111999999999100,5,0,11.9
61933,64519,2007/08/04 15:00:46,41.9253,3.4526,,,,,,,,,,22.76,0.004551,-0.100919,00111999999999100,5,0,11.9
61933,64519,2007/08/04 16:00:40,41.9216,3.4537,,,,,,,,,,22.68,0.025322,-0.114474,00111999999999100,6,0,11.9
61933,64519,2007/08/04 17:00:10,41.9176,3.4554,,,,,,,,,,22.68,0.039399,-0.124588,00111999999999100,6,1,11.9
61933,64519,2007/08/04 18:00:06,41.9132,3.4564,,,,,,,,,,22.44,0.02301,-0.136056,00111999999999100,4,0,11.9
61933,64519,2007/08/04 19:00:12,41.9085,3.4557,,,,,,,,,,22.36,-0.016063,-0.14493,00111999999999100,5,0,11.9
61933,64519,2007/08/04 20:00:35,41.9041,3.4542,,,,,,,,,,22.28,-0.034263,-0.135042,00111999999999100,5,0,11.9
61933,64519,2007/08/04 21:01:42,41.9006,3.4514,,,,,,,,,,22.36,-0.063193,-0.106131,00111999999999100,1,0,11.9